FW6791 Weather Reports


time (UTC)temp
F
wind
direction
speed
knots
gust
knots
rain 1hr
in
rain 24hr
in
rain mn
in
humidity
%
barometer
mb
20260906183955 98 156 0.0 0.0 0.00 0.00 0.00 40 1014.1
20260906183451 98 168 1.7 2.6 0.00 0.00 0.00 40 1014.3
20260906182946 97 162 4.3 5.2 0.00 0.00 0.00 40 1014.3
20260906182442 98 136 2.6 2.6 0.00 0.00 0.00 40 1014.2
20260906181938 100 31 3.5 5.2 0.00 0.00 0.00 40 1014.3
20260906181433 101 67 3.5 6.1 0.00 0.00 0.00 39 1014.3
20260906180928 100 175 3.5 5.2 0.00 0.00 0.00 38 1014.2
20260906180423 100 139 0.0 0.9 0.00 0.00 0.00 40 1014.2
20260906175920 98 142 2.6 2.6 0.00 0.00 0.00 40 1014.6
20260906175416 98 152 0.0 0.0 0.00 0.00 0.00 41 1014.7
20260906174914 100 156 1.7 1.7 0.00 0.00 0.00 41 1014.8
20260906174408 99 67 1.7 2.6 0.00 0.00 0.00 40 1014.9
20260906173903 99 346 6.1 7.8 0.00 0.00 0.00 40 1015.1
20260906173359 100 221 2.6 2.6 0.00 0.00 0.00 40 1015.2
20260906172858 100 149 1.7 1.7 0.00 0.00 0.00 40 1015.3
20260906172354 99 171 0.9 1.7 0.00 0.00 0.00 41 1015.3
20260906171849 100 169 2.6 2.6 0.00 0.00 0.00 41 1015.3
20260906171344 100 222 3.5 3.5 0.00 0.00 0.00 40 1015.5
20260906170840 99 160 0.9 0.9 0.00 0.00 0.00 42 1015.5
20260906170336 98 164 0.9 1.7 0.00 0.00 0.00 43 1015.6
20260906165832 97 153 0.9 0.9 0.00 0.00 0.00 43 1016.0
20260906165330 96 122 0.9 1.7 0.00 0.00 0.00 45 1016.1
20260906164826 97 90 2.6 3.5 0.00 0.00 0.00 45 1016.1
20260906164325 97 95 1.7 3.5 0.00 0.00 0.00 43 1015.8
20260906163821 97 156 0.9 0.9 0.00 0.00 0.00 44 1016.2
20260906163317 97 163 0.9 1.7 0.00 0.00 0.00 44 1016.1
20260906162814 97 125 1.7 2.6 0.00 0.00 0.00 44 1016.2
20260906162308 97 133 1.7 1.7 0.00 0.00 0.00 45 1016.1
20260906161803 97 85 1.7 2.6 0.00 0.00 0.00 46 1016.4
20260906161303 96 163 2.6 2.6 0.00 0.00 0.00 45 1016.3
20260906160801 97 299 6.1 7.0 0.00 0.00 0.00 46 1016.4
20260906160256 95 167 0.9 0.9 0.00 0.00 0.00 47 1016.2
20260906155753 95 165 1.7 1.7 0.00 0.00 0.00 47 1016.4
20260906155248 95 176 1.7 1.7 0.00 0.00 0.00 47 1016.4
20260906154744 94 147 1.7 1.7 0.00 0.00 0.00 48 1016.2
20260906154239 95 184 2.6 2.6 0.00 0.00 0.00 47 1016.3
20260906153737 95 190 1.7 1.7 0.00 0.00 0.00 49 1016.3
20260906153231 93 151 0.0 0.0 0.00 0.00 0.00 50 1016.2
20260906152726 93 176 1.7 1.7 0.00 0.00 0.00 51 1016.2
20260906152220 93 204 3.5 3.5 0.00 0.00 0.00 52 1016.2
20260906151715 92 151 0.9 0.9 0.00 0.00 0.00 52 1016.2
20260906151211 92 172 1.7 2.6 0.00 0.00 0.00 53 1016.1
20260906150707 91 179 1.7 2.6 0.00 0.00 0.00 53 1016.0
20260906150201 90 153 1.7 1.7 0.00 0.00 0.00 55 1016.1
20260906145700 90 181 1.7 1.7 0.00 0.00 0.00 54 1016.0
20260906145200 90 186 2.6 2.6 0.00 0.00 0.00 54 1016.0
20260906144700 89 246 1.7 2.6 0.00 0.00 0.00 57 1016.1
20260906144154 89 177 1.7 1.7 0.00 0.00 0.00 55 1016.2
20260906143649 89 183 2.6 2.6 0.00 0.00 0.00 57 1016.2
20260906143147 88 167 1.7 1.7 0.00 0.00 0.00 57 1016.1
20260906142646 89 190 2.6 2.6 0.00 0.00 0.00 57 1016.2
20260906142141 88 175 1.7 1.7 0.00 0.00 0.00 58 1016.0
20260906141640 87 171 1.7 2.6 0.00 0.00 0.00 59 1016.4
20260906141135 87 166 2.6 2.6 0.00 0.00 0.00 61 1016.1
20260906140634 86 182 2.6 3.5 0.00 0.00 0.00 62 1016.1
20260906140129 85 187 4.3 5.2 0.00 0.00 0.00 63 1016.2
20260906135626 84 183 2.6 2.6 0.00 0.00 0.00 65 1016.1
20260906135122 84 192 3.5 3.5 0.00 0.00 0.00 65 1016.0
20260906134618 84 171 2.6 2.6 0.00 0.00 0.00 64 1016.0
20260906134113 83 171 2.6 2.6 0.00 0.00 0.00 65 1015.8
20260906133609 83 173 1.7 1.7 0.00 0.00 0.00 65 1015.8
20260906133108 82 180 1.7 2.6 0.00 0.00 0.00 67 1015.8
20260906132603 82 176 2.6 2.6 0.00 0.00 0.00 67 1015.8
20260906132059 81 168 1.7 1.7 0.00 0.00 0.00 68 1015.5
20260906131554 81 177 2.6 2.6 0.00 0.00 0.00 69 1015.5
20260906131049 81 179 2.6 2.6 0.00 0.00 0.00 69 1015.5
20260906130544 80 184 1.7 2.6 0.00 0.00 0.00 69 1015.5
20260906130039 80 177 2.6 2.6 0.00 0.00 0.00 70 1015.5
20260906125536 80 178 1.7 1.7 0.00 0.00 0.00 69 1015.6
20260906125031 80 184 2.6 3.5 0.00 0.00 0.00 69 1015.4
20260906124526 80 176 1.7 1.7 0.00 0.00 0.00 70 1015.4
20260906124021 79 173 1.7 2.6 0.00 0.00 0.00 71 1015.4
20260906123520 79 175 1.7 2.6 0.00 0.00 0.00 70 1015.4
20260906123015 79 167 1.7 1.7 0.00 0.00 0.00 71 1015.3
20260906122509 78 168 1.7 2.6 0.00 0.00 0.00 71 1015.2
20260906122005 78 177 1.7 2.6 0.00 0.00 0.00 72 1015.2
20260906121501 78 163 1.7 2.6 0.00 0.00 0.00 72 1015.2
20260906120958 78 187 3.5 3.5 0.00 0.00 0.00 72 1015.4
20260906120452 78 180 2.6 2.6 0.00 0.00 0.00 72 1015.1
20260906115949 78 169 1.7 1.7 0.00 0.00 0.00 71 1015.2
20260906115444 78 183 1.7 1.7 0.00 0.00 0.00 71 1015.3
20260906114938 78 157 0.9 0.9 0.00 0.00 0.00 72 1015.2
20260906114432 78 169 1.7 1.7 0.00 0.00 0.00 72 1015.2
20260906113928 78 171 2.6 2.6 0.00 0.00 0.00 71 1015.0
20260906113426 78 159 1.7 1.7 0.00 0.00 0.00 71 1015.2
20260906112923 78 175 3.5 3.5 0.00 0.00 0.00 71 1015.0
20260906112418 78 163 1.7 2.6 0.00 0.00 0.00 70 1015.0
20260906111913 78 189 2.6 3.5 0.00 0.00 0.00 70 1014.8
20260906111413 78 162 1.7 1.7 0.00 0.00 0.00 71 1014.9
20260906110908 79 159 0.0 0.9 0.00 0.00 0.00 70 1014.7
20260906110403 79 153 0.0 0.9 0.00 0.00 0.00 69 1014.5
20260906105902 80 165 0.9 0.9 0.00 0.00 0.00 68 1014.5
20260906105358 80 175 1.7 1.7 0.00 0.00 0.00 67 1014.8
20260906104854 81 178 3.5 3.5 0.00 0.00 0.00 66 1014.5
20260906104352 81 204 3.5 3.5 0.00 0.00 0.00 66 1014.8
20260906103851 80 175 2.6 2.6 0.00 0.00 0.00 66 1014.9
20260906103349 80 159 3.5 3.5 0.00 0.00 0.00 67 1014.7
20260906102846 78 165 2.6 2.6 0.00 0.00 0.00 70 1014.7
20260906102344 77 160 1.7 1.7 0.00 0.00 0.00 72 1014.8
20260906101840 76 161 0.9 0.9 0.00 0.00 0.00 75 1014.5
20260906101335 77 151 0.0 0.9 0.00 0.00 0.00 75 1014.6
20260906100831 77 155 0.9 0.9 0.00 0.00 0.00 74 1014.8
20260906100329 76 154 0.9 0.9 0.00 0.00 0.00 76 1014.7
20260906095824 76 154 0.0 0.0 0.00 0.00 0.00 77 1014.7
20260906095320 76 151 0.0 0.0 0.00 0.00 0.00 76 1014.6
20260906094819 75 157 0.0 0.0 0.00 0.00 0.00 77 1014.7
20260906094314 75 157 0.0 0.0 0.00 0.00 0.00 78 1014.6
20260906093811 75 158 0.0 0.0 0.00 0.00 0.00 78 1014.8
20260906093307 75 153 0.0 0.0 0.00 0.00 0.00 78 1014.7
20260906092801 75 154 0.0 0.0 0.00 0.00 0.00 78 1014.3
20260906092255 75 154 0.0 0.0 0.00 0.00 0.00 78 1014.2
20260906091746 74 156 0.9 0.9 0.00 0.00 0.00 79 1014.3
20260906091242 74 155 0.0 0.0 0.00 0.00 0.00 80 1014.3
20260906090738 75 136 1.7 1.7 0.00 0.00 0.00 79 1014.3
20260906090236 76 128 1.7 1.7 0.00 0.00 0.00 76 1014.3
20260906085736 75 149 0.0 0.9 0.00 0.00 0.00 77 1014.3
20260906085235 75 150 0.0 0.0 0.00 0.00 0.00 78 1014.1
20260906084730 77 154 0.0 0.0 0.00 0.00 0.00 77 1014.0
20260906084224 78 157 0.9 1.7 0.00 0.00 0.00 72 1013.9
20260906083719 76 167 0.9 0.9 0.00 0.00 0.00 76 1013.9
20260906083215 75 148 0.9 0.9 0.00 0.00 0.00 78 1014.0
20260906082710 76 144 0.9 0.9 0.00 0.00 0.00 77 1014.0
20260906082159 75 137 1.7 1.7 0.00 0.00 0.00 77 1014.0
20260906081649 75 146 0.9 0.9 0.00 0.00 0.00 78 1014.1
20260906081144 75 144 0.9 0.9 0.00 0.00 0.00 78 1014.2
20260906080641 75 135 1.7 1.7 0.00 0.00 0.00 78 1014.1
20260906080136 76 136 1.7 1.7 0.00 0.00 0.00 78 1014.2
20260906075636 76 141 0.9 0.9 0.00 0.00 0.00 76 1014.3
20260906075131 76 136 0.0 0.9 0.00 0.00 0.00 77 1014.3
20260906074626 76 152 0.9 1.7 0.00 0.00 0.00 77 1014.2
20260906074125 76 147 0.9 0.9 0.00 0.00 0.00 77 1014.5
20260906073620 75 142 0.9 0.9 0.00 0.00 0.00 77 1014.4
20260906073116 76 140 0.9 1.7 0.00 0.00 0.00 77 1014.2
20260906072611 76 137 1.7 1.7 0.00 0.00 0.00 77 1014.4
20260906072106 76 151 0.0 0.9 0.00 0.00 0.00 77 1014.2
20260906071602 76 145 0.0 0.0 0.00 0.00 0.00 77 1014.3
20260906071057 77 149 0.0 0.0 0.00 0.00 0.00 76 1014.3
20260906070554 77 152 0.0 0.9 0.00 0.00 0.00 74 1014.2
20260906070048 79 151 0.0 0.9 0.00 0.00 0.00 71 1014.4
20260906065548 78 145 0.9 0.9 0.00 0.00 0.00 72 1014.2
20260906065044 77 160 0.0 0.9 0.00 0.00 0.00 72 1014.2
20260906064539 77 158 0.9 0.9 0.00 0.00 0.00 73 1014.2
20260906064029 77 145 0.9 0.9 0.00 0.00 0.00 75 1014.3
20260906063524 77 147 0.0 0.0 0.00 0.00 0.00 73 1014.5
20260906063020 78 150 0.0 0.0 0.00 0.00 0.00 72 1014.6
20260906062515 78 152 0.0 0.0 0.00 0.00 0.00 71 1014.6
20260906062010 78 144 0.9 0.9 0.00 0.00 0.00 72 1014.7
20260906061505 77 153 0.0 0.0 0.00 0.00 0.00 72 1014.6
20260906060959 77 155 0.0 0.0 0.00 0.00 0.00 72 1014.5
20260906060456 77 155 0.9 0.9 0.00 0.00 0.00 75 1014.6
20260906055953 77 151 0.9 0.9 0.00 0.00 0.00 75 1014.5
20260906055448 76 147 0.9 0.9 0.00 0.00 0.00 75 1014.4
20260906054943 77 136 1.7 1.7 0.00 0.00 0.00 75 1014.5
20260906054438 77 145 0.9 0.9 0.00 0.00 0.00 75 1014.5
20260906053928 77 151 0.0 0.9 0.00 0.00 0.00 75 1014.4
20260906053424 77 151 0.0 0.0 0.00 0.00 0.00 75 1014.4
20260906052920 77 151 0.0 0.0 0.00 0.00 0.00 74 1014.3
20260906052416 77 151 0.0 0.0 0.00 0.00 0.00 73 1014.3
20260906051912 77 151 0.0 0.0 0.00 0.00 0.00 72 1014.2
20260906051406 78 152 0.0 0.0 0.00 0.00 0.00 72 1014.3
20260906050902 78 150 0.0 0.0 0.00 0.00 0.00 71 1014.3
20260906050356 78 150 0.0 0.0 0.00 0.00 0.00 70 1014.3
20260906045855 79 159 0.0 0.0 0.00 0.00 0.00 69 1014.4
20260906045349 78 158 0.0 0.0 0.00 0.00 0.00 70 1014.3
20260906044846 79 158 0.0 0.0 0.00 0.00 0.00 69 1014.2
20260906044345 79 151 0.0 0.0 0.00 0.00 0.00 69 1014.2
20260906043841 80 151 0.0 0.0 0.00 0.00 0.00 67 1014.4
20260906043338 82 157 0.0 0.0 0.00 0.00 0.00 65 1014.4
20260906042833 83 155 0.0 0.0 0.00 0.00 0.00 61 1014.3
20260906042331 83 157 0.0 0.0 0.00 0.00 0.00 61 1014.5
20260906041827 82 151 0.9 0.9 0.00 0.00 0.00 61 1014.5
20260906041323 84 153 0.9 0.9 0.00 0.00 0.00 60 1014.3
20260906040822 83 146 1.7 1.7 0.00 0.00 0.00 59 1014.5
20260906040317 82 151 0.9 0.9 0.00 0.00 0.00 61 1014.4
20260906035813 82 152 0.9 0.9 0.00 0.00 0.00 61 1014.3
20260906035308 82 159 0.9 0.9 0.00 0.00 0.00 61 1014.2
20260906034803 82 155 0.9 0.9 0.00 0.00 0.00 63 1014.3
20260906034258 82 156 0.0 0.9 0.00 0.00 0.00 62 1014.3
20260906033754 82 159 0.0 0.9 0.00 0.00 0.00 62 1014.3
20260906033253 82 157 0.9 0.9 0.00 0.00 0.00 61 1014.4
20260906032750 81 158 0.9 1.7 0.00 0.00 0.00 63 1014.3
20260906032249 81 158 0.0 0.0 0.00 0.00 0.00 66 1014.3
20260906031744 82 156 0.0 0.9 0.00 0.00 0.00 66 1014.2
20260906031241 86 136 0.9 1.7 0.00 0.00 0.00 59 1014.2
20260906030734 85 173 2.6 2.6 0.00 0.00 0.00 58 1014.3
20260906030230 85 168 1.7 2.6 0.00 0.00 0.00 57 1014.0
20260906025729 84 167 0.9 1.7 0.00 0.00 0.00 58 1014.0
20260906025223 82 146 0.0 0.0 0.00 0.00 0.00 64 1013.9
20260906024723 82 144 0.9 0.9 0.00 0.00 0.00 62 1013.8
20260906024222 82 145 0.9 0.9 0.00 0.00 0.00 66 1013.8
20260906023718 83 148 0.0 0.9 0.00 0.00 0.00 62 1013.8
20260906023213 83 147 0.9 0.9 0.00 0.00 0.00 63 1013.8
20260906022708 83 147 0.9 0.9 0.00 0.00 0.00 65 1013.8
20260906022204 84 148 0.0 0.0 0.00 0.00 0.00 62 1013.6
20260906021700 84 148 0.9 0.9 0.00 0.00 0.00 62 1013.5
20260906021157 84 148 0.0 0.9 0.00 0.00 0.00 63 1013.6
20260906020652 84 150 0.9 0.9 0.00 0.00 0.00 62 1013.5
20260906020148 85 151 0.0 0.0 0.00 0.00 0.00 63 1013.1
20260906015642 85 151 0.0 0.0 0.00 0.00 0.00 62 1013.2
20260906015141 85 151 0.0 0.0 0.00 0.00 0.00 62 1013.0
20260906014640 85 151 0.0 0.9 0.00 0.00 0.00 63 1013.0
20260906014136 85 151 0.9 0.9 0.00 0.00 0.00 62 1013.2
20260906013632 85 151 0.0 0.0 0.00 0.00 0.00 61 1013.0
20260906013127 85 151 0.0 0.0 0.00 0.00 0.00 61 1013.0
20260906012622 85 157 0.9 0.9 0.00 0.00 0.00 60 1013.0
20260906012117 85 148 0.9 0.9 0.00 0.00 0.00 59 1013.0
20260906011612 86 148 0.9 0.9 0.00 0.00 0.00 60 1012.9
20260906011107 86 149 0.0 0.0 0.00 0.00 0.00 60 1012.8
20260906010603 86 149 0.0 0.9 0.00 0.00 0.00 59 1012.7
20260906010058 86 148 0.0 0.9 0.00 0.00 0.00 58 1012.6
20260906005557 87 149 0.9 0.9 0.00 0.00 0.00 58 1012.7
20260906005056 87 149 0.9 0.9 0.00 0.00 0.00 56 1012.6
20260906004556 88 153 0.0 0.0 0.00 0.00 0.00 54 1012.5
20260906004051 89 153 0.0 0.0 0.00 0.00 0.00 54 1012.6
20260906003546 90 158 0.0 0.0 0.00 0.00 0.00 52 1012.5
20260906003042 90 158 0.9 1.7 0.00 0.00 0.00 51 1012.6
20260906002537 91 158 0.0 0.0 0.00 0.00 0.00 51 1012.6
20260906002031 92 158 0.0 0.0 0.00 0.00 0.00 51 1012.5
20260906001526 91 157 0.0 0.0 0.00 0.00 0.00 49 1012.6
20260906001021 92 158 0.0 0.0 0.00 0.00 0.00 51 1012.6
20260906000518 92 158 0.0 0.0 0.00 0.00 0.00 50 1012.8
20260906000017 92 158 0.0 0.0 0.00 0.00 0.00 49 1012.7
20260905235511 92 158 0.0 0.0 0.00 0.00 0.00 48 1012.7
20260905235007 92 159 0.0 0.0 0.00 0.00 0.00 52 1012.5
20260905234502 91 159 0.0 0.0 0.00 0.00 0.00 49 1012.8
20260905233956 92 159 0.0 0.0 0.00 0.00 0.00 52 1012.8
20260905233452 92 159 0.0 0.0 0.00 0.00 0.00 49 1012.7
20260905232950 92 159 0.0 0.9 0.00 0.00 0.00 48 1012.6
20260905232447 93 158 0.0 0.0 0.00 0.00 0.00 47 1012.8
20260905231943 94 158 0.0 0.9 0.00 0.00 0.00 48 1012.7
20260905231438 95 155 0.0 0.0 0.00 0.00 0.00 45 1012.8
20260905230934 95 151 0.9 0.9 0.00 0.00 0.00 45 1012.8
20260905230432 95 147 0.9 0.9 0.00 0.00 0.00 44 1012.8
20260905225925 95 152 0.0 0.0 0.00 0.00 0.00 44 1012.5
20260905225420 96 149 0.0 0.9 0.00 0.00 0.00 44 1012.7
20260905224915 96 148 0.9 0.9 0.00 0.00 0.00 43 1012.5
20260905224411 97 151 0.0 0.0 0.00 0.00 0.00 42 1012.6
20260905223859 97 136 1.7 1.7 0.00 0.00 0.00 41 1012.4
20260905223357 98 89 1.7 2.6 0.00 0.00 0.00 41 1012.7
20260905222852 99 105 1.7 2.6 0.00 0.00 0.00 39 1012.5
20260905222350 99 154 2.6 3.5 0.00 0.00 0.00 39 1012.6
20260905221841 99 164 0.0 0.9 0.00 0.00 0.00 39 1012.6
20260905221338 99 156 0.9 1.7 0.00 0.00 0.00 39 1012.6
20260905220833 99 117 1.7 2.6 0.00 0.00 0.00 39 1012.7
20260905220329 100 119 3.5 3.5 0.00 0.00 0.00 38 1012.7
20260905215828 99 140 2.6 3.5 0.00 0.00 0.00 39 1012.4
20260905215324 99 120 0.9 1.7 0.00 0.00 0.00 38 1012.7
20260905214821 99 148 2.6 3.5 0.00 0.00 0.00 38 1012.8
20260905214315 99 72 5.2 5.2 0.00 0.00 0.00 38 1012.8
20260905213805 99 65 4.3 6.1 0.00 0.00 0.00 38 1012.8
20260905213301 100 121 5.2 7.0 0.00 0.00 0.00 38 1012.8
20260905212801 100 132 0.9 0.9 0.00 0.00 0.00 39 1012.8
20260905212255 99 163 0.0 0.0 0.00 0.00 0.00 39 1012.9
20260905211755 98 183 2.6 2.6 0.00 0.00 0.00 40 1012.9
20260905211250 97 169 0.9 0.9 0.00 0.00 0.00 40 1013.1
20260905210747 98 166 0.9 0.9 0.00 0.00 0.00 40 1013.2
20260905210241 99 162 0.0 0.0 0.00 0.00 0.00 39 1013.4
20260905205740 97 160 0.0 0.0 0.00 0.00 0.00 40 1013.5
20260905205234 97 165 1.7 1.7 0.00 0.00 0.00 40 1013.6
20260905204733 97 171 1.7 2.6 0.00 0.00 0.00 41 1013.5
20260905204230 98 160 1.7 1.7 0.00 0.00 0.00 41 1013.8
20260905203729 98 131 1.7 1.7 0.00 0.00 0.00 41 1014.0
20260905203225 98 176 1.7 1.7 0.00 0.00 0.00 40 1013.7
20260905202720 99 153 0.9 0.9 0.00 0.00 0.00 39 1013.9
20260905202215 99 82 3.5 3.5 0.00 0.00 0.00 39 1014.1
20260905201711 100 163 0.9 0.9 0.00 0.00 0.00 39 1014.1
20260905201210 100 141 2.6 3.5 0.00 0.00 0.00 39 1014.0
20260905200706 101 179 1.7 2.6 0.00 0.00 0.00 38 1014.0
20260905200201 101 277 2.6 3.5 0.00 0.00 0.00 39 1014.2
20260905195659 99 176 0.9 1.7 0.00 0.00 0.00 39 1014.3
20260905195154 99 197 2.6 3.5 0.00 0.00 0.00 39 1014.3
20260905194650 99 98 0.9 1.7 0.00 0.00 0.00 39 1014.3
20260905194150 100 121 0.9 1.7 0.00 0.00 0.00 38 1014.4
20260905193650 99 137 3.5 5.2 0.00 0.00 0.00 39 1014.3
20260905193145 100 90 2.6 3.5 0.00 0.00 0.00 39 1014.5
20260905192640 99 114 3.5 5.2 0.00 0.00 0.00 40 1014.5
20260905192137 98 160 0.9 1.7 0.00 0.00 0.00 41 1014.6
20260905191636 98 171 2.6 2.6 0.00 0.00 0.00 41 1014.7
20260905191134 97 56 2.6 5.2 0.00 0.00 0.00 43 1014.8
20260905190632 97 154 0.0 0.9 0.00 0.00 0.00 43 1015.0
20260905190127 96 50 1.7 2.6 0.00 0.00 0.00 44 1015.1
20260905185625 96 131 1.7 2.6 0.00 0.00 0.00 44 1015.1
20260905185120 97 49 4.3 5.2 0.00 0.00 0.00 44 1015.2
20260905184615 98 158 1.7 1.7 0.00 0.00 0.00 42 1015.2
20260905184114 98 163 0.9 1.7 0.00 0.00 0.00 42 1015.2